Вернуться в каталог

OPS 4682 DEB

АктивенPO
NORAD 19113·DEBRIS·🇺🇸 United States

Запущен Apr 3, 1965 с Vandenberg Space Force Base

Loading…

Ближайшие Пролёты (ближайшие 24 часа)

TLE

СвежийSource: Space-Track

Эпоха: Sep 11, 2026, 06:53 UTC

1 19113U 65027AQ  26254.28734823  .00000007  00000-0 -20916-5 0  9992
2 19113  90.2567  16.0897 0036195 190.8065 197.4305 13.06321172646203

Отслеживайте OPS 4682 DEB в реальном времени с AllMySat

Download on the App Store